Location: Bj�rn�ya
(74.5000°N, 19.0000°E)
Time: 02:39:00
(UTC+02:00)

Envisat - Pass Details

Date: 02 February 2022
Orbit: 764 x 765 km, 98.2° (Epoch: 21 May)

Event Time Altitude Azimuth Distance (km) Brightness Sun altitude
Rises 19:04:00 0° 259° (W) 3,239 7.5 -20.4°
Reaches altitude 10° 19:09:13 10° 305° (NW) 2,317 6.5 -20.8°
Maximum altitude 19:09:36 10° 310° (NW) 2,311 6.4 -20.8°
Drops below altitude 10° 19:10:00 10° 314° (NW) 2,317 6.3 -20.8°
Sets 19:15:14 0° 360° (N) 3,248 6.4 -21.2°
